• In Russia
  • List of Countries
  • For 7 days
  • Water Temperature
  • Satellite Maps
  • Weather Map
  • Weather Widgets
  • user-avatar
    Login

    Hourly Weather Klagenfurt

    Today, 4 December, Sunday

    Time Temperature Precipitation Wind Pressure Humidity
    00:00 -2°C° 0 mm 1 mps 693 mmHg 77%
    01:00 -2°C° 0 mm 1 mps 693 mmHg 75%
    02:00 -2°C° 0 mm 1 mps 693 mmHg 74%
    03:00 -2°C° 0 mm 1 mps 693 mmHg 73%
    04:00 -2°C° 0 mm 1 mps 693 mmHg 72%
    05:00 -2°C° 0 mm 1 mps 693 mmHg 71%
    06:00 -3°C° 0 mm 1 mps 693 mmHg 71%
    07:00 -3°C° 0 mm 1 mps 693 mmHg 70%
    08:00 -1°C° 0 mm 1 mps 694 mmHg 65%
    09:00 0°C° 0 mm 1 mps 695 mmHg 60%
    10:00 +1°C° 0 mm 1 mps 695 mmHg 55%
    11:00 +2°C° 0 mm 1 mps 695 mmHg 54%
    12:00 +3°C° 0 mm 1 mps 695 mmHg 52%
    13:00 +4°C° 0 mm 1 mps 695 mmHg 50%
    14:00 +2°C° 0 mm 1 mps 695 mmHg 56%
    15:00 +1°C° 0 mm 1 mps 695 mmHg 62%
    16:00 0°C° 0 mm 1 mps 694 mmHg 68%
    17:00 -1°C° 0 mm 1 mps 695 mmHg 69%
    18:00 -1°C° 0 mm 1 mps 695 mmHg 70%
    19:00 -2°C° 0 mm 1 mps 695 mmHg 71%
    20:00 -2°C° 0 mm 1 mps 695 mmHg 71%
    21:00 -2°C° 0 mm 1 mps 695 mmHg 72%
    22:00 -2°C° 0 mm 1 mps 696 mmHg 72%
    23:00 -2°C° 0 mm 1 mps 696 mmHg 72%

    Tomorrow, 5 December, Monday

    Time Temperature Precipitation Wind Pressure Humidity
    00:00 -2°C° 0 mm 1 mps 696 mmHg 72%
    01:00 -2°C° 0 mm 1 mps 696 mmHg 71%
    02:00 -2°C° 0 mm 1 mps 696 mmHg 71%
    03:00 -2°C° 0 mm 1 mps 695 mmHg 72%
    04:00 -2°C° 0 mm 1 mps 695 mmHg 72%
    05:00 -2°C° 0 mm 1 mps 695 mmHg 72%
    06:00 -2°C° 0 mm 1 mps 695 mmHg 72%
    07:00 -2°C° 0 mm 1 mps 695 mmHg 73%
    08:00 0°C° 0 mm 1 mps 695 mmHg 68%
    09:00 +1°C° 0 mm 1 mps 696 mmHg 64%
    10:00 +3°C° 0 mm 1 mps 696 mmHg 60%
    11:00 +3°C° 0 mm 1 mps 696 mmHg 60%
    12:00 +4°C° 0 mm 1 mps 696 mmHg 61%
    13:00 +5°C° 0 mm 1 mps 696 mmHg 61%
    14:00 +4°C° 0 mm 1 mps 695 mmHg 71%
    15:00 +2°C° 0 mm 1 mps 695 mmHg 81%
    16:00 0°C° 0 mm 1 mps 694 mmHg 91%
    17:00 0°C° 0 mm 1 mps 694 mmHg 92%
    18:00 0°C° 0 mm 1 mps 694 mmHg 93%
    19:00 -1°C° 0 mm 1 mps 694 mmHg 93%
    20:00 -1°C° 0 mm 1 mps 695 mmHg 93%
    21:00 -1°C° 0 mm 1 mps 695 mmHg 92%
    22:00 -1°C° 0 mm 1 mps 695 mmHg 92%
    23:00 -1°C° 0 mm 1 mps 695 mmHg 91%

    Day after tomorrow, 6 December, Tuesday

    Time Temperature Precipitation Wind Pressure Humidity
    00:00 -1°C° 0 mm 1 mps 695 mmHg 90%
    01:00 -1°C° 0 mm 1 mps 695 mmHg 90%
    02:00 -1°C° 0 mm 1 mps 695 mmHg 88%
    03:00 -1°C° 0 mm 1 mps 695 mmHg 87%
    04:00 -1°C° 0 mm 1 mps 694 mmHg 86%
    05:00 -1°C° 0 mm 1 mps 695 mmHg 84%
    06:00 -1°C° 0 mm 1 mps 695 mmHg 82%
    07:00 -1°C° 0 mm 1 mps 695 mmHg 81%
    08:00 0°C° 0 mm 1 mps 695 mmHg 74%
    09:00 +2°C° 0 mm 1 mps 696 mmHg 67%
    10:00 +4°C° 0 mm 1 mps 696 mmHg 60%
    11:00 +4°C° 0 mm 0 mps 696 mmHg 58%
    12:00 +5°C° 0 mm 0 mps 696 mmHg 56%
    13:00 +6°C° 0 mm 0 mps 696 mmHg 54%
    14:00 +4°C° 0 mm 0 mps 696 mmHg 60%
    15:00 +1°C° 0 mm 0 mps 695 mmHg 67%
    16:00 -1°C° 0 mm 0 mps 695 mmHg 74%
    17:00 -1°C° 0 mm 0 mps 695 mmHg 75%
    18:00 -1°C° 0 mm 1 mps 696 mmHg 75%
    19:00 -1°C° 0 mm 1 mps 696 mmHg 75%
    20:00 -1°C° 0 mm 1 mps 696 mmHg 76%
    21:00 -1°C° 0 mm 1 mps 697 mmHg 77%
    22:00 -1°C° 0 mm 1 mps 697 mmHg 77%
    23:00 -1°C° 0 mm 1 mps 697 mmHg 78%

    7 December, Wednesday

    Time Temperature Precipitation Wind Pressure Humidity
    00:00 -1°C° 0 mm 1 mps 697 mmHg 78%
    01:00 -1°C° 0 mm 1 mps 697 mmHg 78%
    02:00 -1°C° 0 mm 1 mps 697 mmHg 79%
    03:00 -1°C° 0 mm 1 mps 697 mmHg 80%
    04:00 -2°C° 0 mm 1 mps 697 mmHg 80%
    05:00 -2°C° 0 mm 1 mps 697 mmHg 81%
    06:00 -2°C° 0 mm 1 mps 698 mmHg 82%
    07:00 -2°C° 0 mm 1 mps 698 mmHg 83%
    08:00 0°C° 0 mm 1 mps 699 mmHg 78%
    09:00 +1°C° 0 mm 1 mps 699 mmHg 73%
    10:00 +2°C° 0 mm 1 mps 700 mmHg 68%
    11:00 +3°C° 0 mm 1 mps 700 mmHg 66%
    12:00 +4°C° 0 mm 1 mps 700 mmHg 63%
    13:00 +4°C° 0 mm 1 mps 700 mmHg 61%
    14:00 +3°C° 0 mm 1 mps 699 mmHg 70%
    15:00 +1°C° 0 mm 1 mps 699 mmHg 78%
    16:00 0°C° 0 mm 1 mps 699 mmHg 87%
    17:00 -1°C° 0 mm 1 mps 699 mmHg 87%
    18:00 -1°C° 0 mm 1 mps 699 mmHg 88%
    19:00 -2°C° 0 mm 1 mps 699 mmHg 88%
    20:00 -2°C° 0 mm 1 mps 699 mmHg 86%
    21:00 -2°C° 0 mm 1 mps 700 mmHg 85%
    22:00 -2°C° 0 mm 1 mps 700 mmHg 83%
    23:00 -2°C° 0 mm 1 mps 699 mmHg 82%

    8 December, Thursday

    Time Temperature Precipitation Wind Pressure Humidity
    00:00 -2°C° 0 mm 1 mps 699 mmHg 81%
    01:00 -2°C° 0 mm 1 mps 699 mmHg 80%
    02:00 -2°C° 0 mm 1 mps 699 mmHg 78%
    03:00 -2°C° 0 mm 1 mps 699 mmHg 77%
    04:00 -2°C° 0 mm 1 mps 699 mmHg 75%
    05:00 -2°C° 0 mm 1 mps 699 mmHg 73%
    06:00 -2°C° 0 mm 1 mps 698 mmHg 71%
    07:00 -2°C° 0 mm 1 mps 698 mmHg 70%
    08:00 0°C° 0 mm 1 mps 699 mmHg 63%
    09:00 +2°C° 0 mm 1 mps 700 mmHg 56%
    10:00 +4°C° 0 mm 1 mps 700 mmHg 49%
    11:00 +5°C° 0 mm 1 mps 700 mmHg 48%
    12:00 +6°C° 0 mm 1 mps 700 mmHg 47%
    13:00 +7°C° 0 mm 1 mps 700 mmHg 46%
    14:00 +5°C° 0 mm 1 mps 699 mmHg 52%
    15:00 +3°C° 0 mm 1 mps 698 mmHg 58%
    16:00 +1°C° 0 mm 1 mps 698 mmHg 65%
    17:00 +1°C° 0 mm 1 mps 698 mmHg 64%
    18:00 +1°C° 0 mm 1 mps 698 mmHg 63%
    19:00 0°C° 0 mm 1 mps 698 mmHg 62%
    20:00 0°C° 0 mm 1 mps 698 mmHg 60%
    21:00 0°C° 0 mm 1 mps 698 mmHg 59%
    22:00 +1°C° 0 mm 1 mps 698 mmHg 57%
    23:00 +1°C° 0 mm 1 mps 698 mmHg 56%

    9 December, Friday

    Time Temperature Precipitation Wind Pressure Humidity
    00:00 +1°C° 0 mm 1 mps 698 mmHg 55%
    01:00 +2°C° 0 mm 1 mps 698 mmHg 54%
    02:00 +2°C° 0 mm 1 mps 698 mmHg 54%
    03:00 +2°C° 0 mm 1 mps 697 mmHg 55%
    04:00 +1°C° 0 mm 1 mps 697 mmHg 56%
    05:00 +1°C° 0 mm 1 mps 697 mmHg 58%
    06:00 +1°C° 0 mm 1 mps 697 mmHg 60%
    07:00 0°C° 0 mm 1 mps 697 mmHg 63%
    08:00 +2°C° 0 mm 1 mps 697 mmHg 60%
    09:00 +3°C° 0 mm 1 mps 697 mmHg 57%
    10:00 +5°C° 0 mm 1 mps 698 mmHg 54%
    11:00 +6°C° 0 mm 1 mps 698 mmHg 55%
    12:00 +7°C° 0 mm 1 mps 697 mmHg 57%
    13:00 +8°C° 0 mm 1 mps 697 mmHg 58%
    14:00 +6°C° 0 mm 1 mps 697 mmHg 65%
    15:00 +4°C° 0 mm 1 mps 696 mmHg 73%
    16:00 +3°C° 0 mm 1 mps 696 mmHg 80%
    17:00 +2°C° 0 mm 1 mps 696 mmHg 81%
    18:00 +2°C° 0 mm 1 mps 696 mmHg 81%
    19:00 +1°C° 0 mm 1 mps 696 mmHg 82%
    20:00 +1°C° 0 mm 1 mps 696 mmHg 82%
    21:00 +1°C° 0 mm 1 mps 696 mmHg 82%
    22:00 +1°C° 0 mm 1 mps 696 mmHg 81%
    23:00 +1°C° 0 mm 1 mps 696 mmHg 81%
    Show more